小惑星A/2021 E4

A/2021 E4

English version
Home page
Updated on August 15, 2021

---------------------------------------------------------------------

・ プロフィール

発見日 2021年3月7日
発見光度 21.2等
発見者 Mt. Lemmon Survey

・ 軌道要素

Epoch 2021 July 5.0 TT = JDT 2459400.5
T 2022 Apr. 25.40670 TT                                 Rudenko
q   4.6757595            (2000.0)            P               Q
z  +0.0013637      Peri.   48.29087     -0.60660351     +0.78302202
 +/-0.0000054      Node   171.17232     +0.12809018     -0.07444424
e   0.9936237      Incl.  116.35790     +0.78461780     +0.61752293
H   13.5
From 74 observations 2020 Dec. 21-2021 July 3, mean residual 0".3.

・ 光度変化

        H = 13.5  G = 0.15

---------------------------------------------------------------------

軌道要素はM.P.E.C. 2021-P47に掲載されたものです。
光度グラフはComet for Windowsで作成したものです。

---------------------------------------------------------------------

Copyright(C) Seiichi Yoshida (comet@aerith.net). All rights reserved.